Regional Weather Roundup
Issued by NWS

Home | Current Version | Previous Version | Graphics & Text | Print | Product List | Glossary On
Versions: 1 2 3 4 5 6 7 8 9 10 11 12 13 14 15 16 17 18 19 20 21 22 23 24 25 26 27 28 29 30 31 32 33 34 35 36 37 38 39 40 41 42 43 44 45 46 47 48 49 50
000
ASUS45 KBOU 131607
RWRCO

WEATHER ROUNDUP FOR COLORADO
NATIONAL WEATHER SERVICE DENVER/BOULDER CO
900 AM MST SAT FEB 13 2016

NOTE: "FAIR" INDICATES FEW OR NO CLOUDS BELOW 12000 FEET WITH NO
SIGNIFICANT WEATHER AND/OR OBSTRUCTIONS TO VISIBILITY.

COZ001>005-013-030-031-131700-
...NORTHWEST COLORADO...

CITY           SKY/WX    TMP DP  RH WIND       PRES   REMARKS
CRAIG          FAIR       9   7  92 CALM      30.26S
HAYDEN         FAIR      25  14  63 SE6       30.24S WCI  18
MEEKER         FAIR      20  14  77 N3        30.25S
MOUNT WERNER   NOT AVBL
STEAMBOAT SPGS FAIR      16  13  89 CALM      30.25F
WALDEN         FAIR      37  12  35 S10G16    30.21F
$$

COZ006>008-011-131700-
...WEST CENTRAL VALLEYS...

CITY           SKY/WX    TMP DP  RH WIND       PRES   REMARKS
GRAND JUNCTION FAIR      28  24  85 SE6       30.28F WCI  22
MONTROSE       FAIR      30  23  75 SE5       30.31S WCI  25
EAGLE          MOSUNNY   19  18  93 CALM      30.32S
RIFLE          FAIR      22  16  78 E3        30.30F
DELTA          FAIR      35  27  72 CALM      30.30F
NUCLA          FAIR      34  23  64 CALM      30.34S
$$

COZ017>023-064>068-131700-
...SOUTHWEST COLORADO...

CITY           SKY/WX    TMP DP  RH WIND       PRES   REMARKS
DURANGO        FAIR      29  21  72 CALM      30.32S
CORTEZ         FAIR      36  23  59 CALM      30.30F
PAGOSA SPRINGS FAIR      32  20  63 CALM      30.35F
TELLURIDE      FAIR      38  12  34 SE5       30.38F
WOLF CREEK PAS FAIR      30  16  55 SW22G29   30.45S WCI  17
$$

COZ009-010-012-014-032>034-037-058>063-131700-
...CENTRAL COLORADO...

CITY           SKY/WX    TMP DP  RH WIND       PRES   REMARKS
ASPEN          FAIR      33  18  53 CALM      30.26F
BUENA VISTA    FAIR      33  24  69 S5        30.23F WCI  29
COPPER MTN     FAIR      34   0  23 W20G30    30.34S WCI  22
BERTHOUD PASS  FAIR      25  14  63 W48G60    30.23F WCI   4
COTTONWOOD PAS FAIR      45 -15   8 SW30G41   30.26F
GUNNISON       FAIR      -6 -24  41 CALM      30.44S
KREMMLING      FOG      N/A N/A N/A CALM      30.31F VSB<1/4
LEADVILLE      FAIR      38   4  24 N9        30.28F
MONARCH PASS   FAIR      28   5  37 W43G51    30.45F WCI  10
SALIDA         NOT AVBL
SUNLIGHT       FAIR      32  12  43 SW3       30.37F
WILKERSON PASS FAIR      32   5  32 SW13G23   30.29F WCI  22
$$

COZ069>075-131700-
...SAN LUIS VALLEY/SANGRE DE CRISTO MOUNTAINS...

CITY           SKY/WX    TMP DP  RH WIND       PRES   REMARKS
ALAMOSA        FAIR      30  25  81 E3        30.30F
LA VETA PASS   FAIR      34  18  51 S12G29    30.29F WCI  25
SAGUACHE       FAIR      34  21  60 NW12      30.31F WCI  25
$$

COZ035-036-038>040-131700-
...NORTHERN COLORADO FRONT RANGE...

CITY           SKY/WX    TMP DP  RH WIND       PRES   REMARKS
DENVER INTL AP PTSUNNY   32  27  81 CALM      30.06F HAZE
DMNS CITY PARK   N/A     33  33  99 SE6       30.06F WCI  28
AURORA         PTSUNNY   34  34 100 SE5       30.07F WCI  30
FRONT RANGE AP PTSUNNY   32  30  93 MISG      30.06F
ERIE MUNI ARPT FOG       29  29 100 NE3       30.07F VSB 1/4
BOULDER MUN AP SNOW      30  30 100 CALM      30.05F VSB<1/4
CENTENNIAL     PTSUNNY   46  26  45 SE7       30.07S
BROOMFIELD     PTSUNNY   30  30 100 CALM      30.06F
FORT COLLINS   CLOUDY    28  28 100 CALM      30.08F VSB<1/4
LONGMONT       FOG       31  30  96 SW3       30.09F VSB 1/4
$$

COZ041-046-047-076>085-087-088-131700-
...PIKES PEAK/PALMER DIVIDE AND SOUTHERN FOOTHILLS...

CITY           SKY/WX    TMP DP  RH WIND       PRES   REMARKS
COLO. SPRINGS  PTSUNNY   38  28  67 NW7       30.11F
A. F. ACADEMY  FAIR      42  20  41 N8        30.10F
SCHRIEVER AFB  FAIR      45  26  47 NW1       30.11F
ELLICOTT       FAIR     N/A N/A N/A CALM      30.09F
FALCON         FAIR      42  25  49 NW5       30.13F
FORT CARSON    FAIR      32  29  89 NW3       30.09F
LIMON          CLOUDY    27  27 100 S6        30.09F FOG     WCI  20
MONUMENT HILL  FAIR      45  21  39 SW13      30.13F
TRINIDAD       FAIR      59  21  23 SW21      30.13F
$$

COZ042>045-048>051-090-091-131700-
...NORTHEAST COLORADO...

CITY           SKY/WX    TMP DP  RH WIND       PRES   REMARKS
GREELEY ARPT   CLOUDY    30  28  93 CALM      30.10S VSB<1/4
AKRON          FAIR      30  29  96 S8        30.09R WCI  22
BURLINGTON     FOG       26  24  92 S17       30.16F VSB 1/2 WCI  13
WRAY           CLOUDY    29  29 100 S14       30.16F WCI  18
STERLING       CLOUDY    32  32 100 S8        30.09F WCI  25
HOLYOKE        CLOUDY    32  30  93 S16       30.15F FOG     WCI  21
FORT MORGAN    FOG       29  29  99 CALM      30.09F VSB 1/4
$$

COZ086-089-092>099-131700-
...SOUTHEAST COLORADO...

CITY           SKY/WX    TMP DP  RH WIND       PRES   REMARKS
PUEBLO         FOG       30  28  92 W3        30.12F VSB 1/4
LA JUNTA       CLOUDY    30  28  92 W3        30.14F FOG
LAMAR          CLOUDY    30  28  92 SE5       30.16F FOG     WCI  25
SPRINGFIELD      N/A     40  29  64 CALM      30.12F
$$



USA.gov is the U.S. government's official web portal to all federal, state and local government web resources and services.